Skip Page Navigation
NASA JPL Caltech
NASA Logo - Jet Propulsion Laboratory + View the NASA Portal
+ Near-Earth Object (NEO) Program
Search JPL
JPL Home Earth Solar System Stars & Galaxies Technology
JPL Solar System Dynamics
BODIES ORBITS EPHEMERIDES TOOLS PHYSICAL DATA DISCOVERY FAQ SITE MAP
JPL Small-Body Database Browser
Search: [ help ]  
48429 (1989 SK10)
Classification: Main-belt Asteroid          SPK-ID: 2048429
Ephemeris | Orbit Diagram | Orbital Elements | Physical Parameters | Discovery Circumstances | Close-Approach Data ]

[ show orbit diagram ]
Orbital Elements at Epoch 2456400.5 (2013-Apr-18.0) TDB
Reference: JPL 1 (heliocentric ecliptic J2000)
 Element Value Uncertainty (1-sigma)   Units 
e .1769709670534841 7.5302e-08  
a 2.614319486585101 2.5793e-08 AU
q 2.151660838857368 2.0513e-07 AU
i .6140271901363028 5.2689e-06 deg
node 265.7096132580356 0.0007378 deg
peri 113.2388030090635 0.00073825 deg
M 189.7806438613682 2.5074e-05 deg
tp 2457130.533617695023
(2015-Apr-18.03361769)
0.00011509 JED
period 1543.961323388899
4.23
2.2849e-05
6.256e-08
d
yr
n .2331664624926111 3.4507e-09 deg/d
Q 3.076978134312834 3.0358e-08 AU
  Orbit Determination Parameters
   # obs. used (total)      630  
   data-arc span      8607 days (23.56 yr)  
   first obs. used      1989-09-28  
   last obs. used      2013-04-22  
   planetary ephem.      DE405  
   SB-pert. ephem.      SB405-CPV-2  
   condition code      0  
   fit RMS      .57696  
   data source      ORB  
   producer      Otto Matic  
   solution date      2013-Apr-29 16:17:22  

Additional Information
 Earth MOID = 1.15327 AU 
 T_jup = 3.386 
[ show covariance matrix ]

Ephemeris | Orbit Diagram | Orbital Elements | Physical Parameters | Discovery Circumstances | Close-Approach Data ]

Physical Parameter Table
Parameter Symbol Value Units Sigma Reference Notes
absolute magnitude H 14.958 mag .42252 1 autocmod 2.5c

48429 (1989 SK10)          Discovered 1989-Sep-28 by Debehogne, H. at La Silla (809)
Reference: 20021120/Numbers.arcLast Updated: 2004-04-19

[ show close-approach data ]
Alternate Designations
 1989 SK10 = 1995 AG2 = 1998 YL25 
Ephemeris | Orbit Diagram | Orbital Elements | Physical Parameters | Discovery Circumstances | Close-Approach Data ]
ABOUT SSD CREDITS/AWARDS PRIVACY/COPYRIGHT GLOSSARY LINKS
FirstGov 2013-Jun-19 09:06 UT
(server date/time)  
NASA Home Page
Site Manager:   Donald K. Yeomans
Webmaster  Alan B. Chamberlin